Flag for Brazil Weather past 2 weeks in Maceió, Alagoas, Brazil

Now
75 °F

Passing clouds.


Feels Like: 74 °F
Forecast: 73 / 85 °F
Wind: 3 mph from East

Location: Maceio Aeroporto

Current Time: Oct 1, 2014 at 9:25:00 PM

Latest Report: Oct 1, 2014 at 9:00 PM


Visibility: N/A

Pressure: 30.01 "Hg

Humidity: 94%

Dew point: 73 °F

Location of MaceióLocation

Historic Weather in Maceió — Graph

°F

Maceió temperature yesterday

Maximum temperature yesterday: 86 °F (at 10:00 AM)
Minimum temperature yesterday: 70 °F (at 5:00 AM)
Average temperature yesterday: 78 °F

Past Weeks' High & Low Weather Summary

 TemperatureHumidityPressure
High86 °F (Sep 27, 12:00 PM)100% (Sep 17, 1:00 AM)30.09 "Hg (Sep 17, 1:00 AM)
Low63 °F (Sep 17, 1:00 AM)51% (Sep 25, 1:00 PM)29.89 "Hg (Sep 22, 2:00 PM)
Average74 °F84%30.03 "Hg
* Reported Sep 16 8:00 PM — Oct 1 8:00 PM, Maceió, Weather by CustomWeather, © 2014

Note: Actual official high and low records may vary slightly from our data, if they occured in-between our weather recording intervals... More about our weather records

Advertising

Maceió weather history for previous 24 hours

 ConditionsComfort  
Time TempWeatherWind HumidityBarometerVisibility
8:00 PM
Oct 1
75 °FPassing clouds.3 mph94%29.98 "HgN/A
7:00 PM75 °FPassing clouds.5 mph94%29.98 "HgN/A
6:00 PM77 °FPassing clouds.7 mph89%29.98 "HgN/A
5:00 PM81 °FPassing clouds.12 mph79%29.95 "HgN/A
4:00 PM82 °FScattered clouds.12 mph70%29.95 "HgN/A
3:00 PM84 °FScattered clouds.14 mph70%29.95 "HgN/A
2:00 PM86 °FPartly sunny.13 mph62%29.95 "HgN/A
1:00 PM86 °FScattered clouds.14 mph62%29.95 "HgN/A
12:00 PM86 °FScattered clouds.12 mph62%29.98 "HgN/A
11:00 AM86 °FScattered clouds.15 mph62%30.01 "HgN/A
10:00 AM84 °FScattered clouds.9 mph66%30.01 "HgN/A
9:00 AM84 °FScattered clouds.9 mph70%30.04 "HgN/A
8:00 AM82 °FScattered clouds.7 mph74%30.04 "HgN/A
7:00 AM79 °FPassing clouds.3 mph89%30.04 "HgN/A
6:00 AM73 °FPassing clouds.3 mph100%30.01 "HgN/A
5:00 AM72 °FPassing clouds.3 mph100%29.98 "HgN/A
4:00 AM72 °FPassing clouds.2 mph94%29.98 "HgN/A
3:00 AM72 °FPassing clouds.5 mph100%29.98 "HgN/A
2:00 AM72 °FClear.3 mph100%29.98 "Hg10 mi
1:00 AM72 °FClear.3 mph100%29.98 "Hg10 mi
12:00 AM73 °FPassing clouds.3 mph94%30.01 "HgN/A
11:00 PM
Sep 30
73 °FClear.3 mph94%30.04 "Hg10 mi
10:00 PM75 °FClear.5 mph89%30.04 "Hg10 mi
9:00 PM75 °FPassing clouds.3 mph94%30.04 "HgN/A
Weather by CustomWeather, © 2014

See weather overviewHow to use our weather pages